www.pogodaiklimat.ru

Погода и климат >> Архив погоды >> Россия >> Волгоградская область >> Новоаннинский


ПОГОДА в Новоаннинском

  • Прогноз погоды в Новоаннинском
  • Монитор погоды в Новоаннинском

АРХИВ ПОГОДЫ в Новоаннинском

Время (UTC), дата Ветер
(напр.,м/с)
 
Видим.   Явления Облачность Т
(С)
Тd
(С)
f
(%)
Тe
(С)
Тes
(С)
Комфортность P
(гПа)
Po
(гПа)
Тmin
(С)
Tmax
(С)
R
(мм)
R24
(мм)
S
(см)
00 18.08 ЮВ 1 20 км 6/0
[Ci sp]
+17.4 +12.5 73 +18 +18 1010.0 998.5
03 18.08 Ю 1 20 км ясно +16.0 +12.3 79 +17 +17 1010.6 999.1 +14.7
06 18.08 штиль 0 20 км ясно +25.1 +13.8 49 +27 +37 жарко 1011.0 999.8
09 18.08 Ю 3 20 км 6/6 600 м
[Cu med, cong]
+29.4 +15.3 42 +32 +36 душно 1010.7 999.7
12 18.08 Ю 1 20 км 10/10 600 м
[Sc diur, vesp]
+28.9 +16.1 46 +32 +32 душно 1010.7 999.7
15 18.08 штиль 0 20 км гроза без осадков {ливн. осадки} 10/10 600 м
[Cb calv]
+21.8 +20.6 93 +28 +28 душно 1011.9 1000.6 +30.9 9
18 18.08 СВ 1 20 км {гроза} 10/10 600 м
[Sc diur, vesp]
+21.4 +20.0 92 +27 +27 душно 1013.3 1002.0
21 18.08 СВ 2 20 км 8/6 600 м
[Sc diur, vesp Ci fib]
+20.7 +18.9 89 +26 +26 душно 1013.7 1002.4
00 19.08 С 1 20 км 8/6 600 м
[Cu hum Ci fib]
+18.7 +16.8 89 +21 +21 комфорт 1013.7 1002.3
03 19.08 штиль 0 20 км 6/4 600 м
[Cu hum Ci]
+17.7 +16.3 92 +18 +18 1014.8 1003.4 +17.7
06 19.08 В 1 20 км 6/0
[Ci fib]
+24.4 +14.6 54 +27 +35 жарко 1014.9 1003.7
09 19.08 С 2 20 км 4/3 1000 м
[Cu hum Ci fib]
+27.7 +16.4 50 +31 +40 душно 1015.8 1004.7
12 19.08 З 1 20 км 9/9 600 м
[Cu med, cong]
+28.8 +14.4 41 +31 +32 жарко 1016.5 1005.4
15 19.08 С 2 20 км 9/9 600 м
[Cu med, cong]
+26.7 +19.5 65 +32 +32 очень
душно
1016.7 1005.6 +29.6
18 19.08 С 2 20 км 4/4 1000 м
[Sc diur, vesp]
+22.9 +19.6 82 +29 +29 очень
душно
1017.6 1006.3
21 19.08 С 2 20 км 4/4 1000 м
[Sc diur, vesp]
+20.2 +17.3 83 +24 +24 комфорт 1018.3 1006.9
00 20.08 С 2 20 км ясно +18.7 +16.1 85 +20 +20 1017.9 1006.5
03 20.08 С 2 20 км ясно +18.1 +15.9 87 +19 +19 1018.5 1007.0 +17.9
06 20.08 С 3 20 км ясно +23.5 +16.3 64 +27 +33 душно 1019.2 1007.9
09 20.08 С 4
{10}
20 км 6/0
[Ci fib]
+27.7 +17.0 52 +32 +39 очень
душно
1018.9 1007.8
12 20.08 С 4 20 км 6/0
[Ci fib]
+29.4 +15.0 42 +32 +37 душно 1018.7 1007.6
15 20.08 С 2 20 км 3/0
[Ci fib]
+27.9 +16.3 49 +31 +32 душно 1019.1 1008.0 +29.7
18 20.08 С 2 20 км ясно +21.7 +16.6 73 +26 +26 душно 1020.4 1009.0
21 20.08 С 2 20 км ясно +19.0 +15.6 81 +21 +21 комфорт 1020.9 1009.4
00 21.08 С 1 20 км ясно +16.8 +14.3 85 +18 +18 1021.1 1009.5
03 21.08 С 1 20 км ясно +15.2 +13.5 90 +16 +16 1021.7 1010.0 +14.9
06 21.08 С 2 20 км ясно +23.0 +15.8 64 +27 +35 душно 1021.2 1009.9
09 21.08 СВ 3 20 км ясно +28.2 +16.4 49 +32 +43 душно 1020.2 1009.1
12 21.08 СВ 4 20 км ясно +30.5 +14.0 37 +32 +38 жарко 1019.1 1008.1
15 21.08 СВ 3 20 км ясно +29.2 +13.8 39 +31 +32 жарко 1018.9 1007.8 +30.9
18 21.08 СВ 1 20 км ясно +23.0 +14.9 60 +27 +27 душно 1019.7 1008.4
21 21.08 СВ 2 20 км ясно +20.0 +14.2 69 +23 +23 комфорт 1020.1 1008.6
00 22.08 СВ 1 20 км ясно +17.8 +13.8 77 +19 +19 1020.0 1008.5
03 22.08 СВ 2 20 км ясно +16.6 +13.8 84 +17 +17 1020.5 1008.9 +16.2
06 22.08 СВ 3 20 км ясно +23.6 +14.9 58 +26 +32 жарко 1020.2 1008.9
09 22.08 СВ 3 20 км ясно +28.5 +14.2 42 +31 +42 душно 1019.4 1008.3
12 22.08 С 1 20 км ясно +30.4 +13.1 35 +32 +41 жарко 1018.4 1007.3
15 22.08 С 2 20 км ясно +29.3 +14.8 41 +32 +32 душно 1018.1 1007.0 +31.0
18 22.08 СВ 1 20 км ясно +23.1 +15.7 63 +27 +27 душно 1019.1 1007.8
21 22.08 СВ 2 20 км ясно +20.0 +14.2 69 +23 +23 комфорт 1019.5 1008.1
00 23.08 СВ 2 н/о н/о +18.0 +13.6 75 +19 +19 1019.7 1008.2
03 23.08 СВ 1 20 км ясно +17.2 +13.3 78 +18 +18 1020.4 1008.8 +16.7
06 23.08 С 2 20 км 9/0
[Ci]
+24.6 +14.9 55 +27 +33 жарко 1020.9 1009.6
09 23.08 СВ 4 20 км 8/6 600 м
[Cu med, cong Ci fib]
+29.1 +13.0 37 +30 +34 жарко 1020.3 1009.2
12 23.08 СВ 3 20 км 8/6 600 м
[Cu med, cong Ci fib]
+30.4 +12.5 33 +31 +34 жарко 1019.8 1008.8
15 23.08 С 2 20 км 8/6 600 м
[Cu hum Ci fib]
+27.6 +14.3 44 +30 +30 жарко 1019.9 1008.7 +30.4
18 23.08 С 3 20 км 8/8 600 м
[Sc diur, vesp]
+24.1 +16.8 64 +28 +28 душно 1020.7 1009.4
21 23.08 СВ 2 20 км 10/10 600 м
[Sc diur, vesp]
+21.2 +16.1 73 +25 +25 комфорт 1020.6 1009.2
00 24.08 С 2 20 км 10/10 600 м
[Sc diur, vesp]
+19.0 +15.5 80 +21 +21 комфорт 1020.8 1009.3
03 24.08 С 2 н/о н/о +18.7 +15.3 81 +20 +20 1021.8 1010.3 +18.6
06 24.08 СВ 3 20 км 8/0
[Ci fib]
+22.7 +13.5 56 +26 +31 жарко 1022.1 1010.7
09 24.08 С 2 20 км 8/0
[Ci fib]
+27.2 +14.7 46 +30 +40 душно 1021.2 1010.0
12 24.08 С 2 20 км 8/8 600 м
[Cu med, cong]
+29.7 +14.9 41 +32 +34 душно 1020.2 1009.1
15 24.08 С 2 20 км 6/6 600 м
[Cu med, cong]
+28.3 +14.9 44 +31 +31 душно 1019.9 1008.8 +30.1
18 24.08 СВ 2 20 км 3/3 1000 м
[Sc diur, vesp]
+22.3 +15.0 63 +26 +26 жарко 1020.6 1009.3
21 24.08 СВ 2 20 км ясно +20.1 +13.1 64 +23 +23 комфорт 1020.6 1009.1

 

Местоположение метеостанции Новоаннинский (Волгоградская область, Россия): широта 50.53 долгота 42.68 высота над уровнем моря 98 м.

В архиве по умолчанию представлена погода в Новоаннинском за последнюю неделю. Архивные данные за месяц целиком и за предыдущие месяцы, начиная с января 2011 года, Вы можете получить, выбрав интересующий диапазон дат из раскрывающегося списка и нажав кнопку "Ввод!".


*Определитесь, кто Вы:
робот инопланетянин человек

Внимание! Время в таблицах - всемирное. Для получения местного времени необходимо прибавить поправку, которая равна 3 ч.

Смотрите также архив погоды в соседних городах и на ближайших метеорологических станциях:

Погода в Урюпинске (Волгоградская область, Россия) (57 км)
Погода в Михайловке (Волгоградская область, Россия) (65 км)
Погода в Елани (Волгоградская область, Россия) (87 км)
Погода в Борисоглебске (Воронежская область, Россия) (102 км)
Погода в Даниловке (Волгоградская область, Россия) (104 км)
Погода в Серафимовиче (Волгоградская область, Россия) (107 км)
Погода в Фролове (Волгоградская область, Россия) (108 км)
Погода в Калаче (Воронежская область, Россия) (116 км)
Погода в Балашове (Саратовская область, Россия) (118 км)
Погода в Казанской (Ростовская область, Россия) (136 км)

Пояснения к столбцам:

Ветер - указаны скорость ветра в м/с - средняя за 10 мин, порывы в срок и между сроками (в фигурных скобках) и направление, откуда дует ветер: С - северный, СВ - северо-восточный, В - восточный, ЮВ - юго-восточный, Ю - южный, ЮЗ - юго-западный, З - западный, СЗ - северо-западный.
Видимость - горизонтальная дальность видимости в метрах или километрах. При видимости от 1 до 10 км при отсутствии осадков обычно наблюдается дымка, при ухудшении видимости до 1 км и менее - туман. В сухую погоду видимость может ухудшаться дымом, пылью или мглою.
Явления - указаны атмосферные явления, наблюдавшиеся в срок или в последний час перед сроком; фигурными скобками обозначены явления, наблюдавшиеся между сроками (за 1-3 часа до срока); квадратными скобками обозначены град или гололедные отложения с указанием их диаметра в мм.
Облачность - указаны через наклонную черту общая и нижняя облачность в баллах и высота нижней границы облаков в метрах; квадратными скобками обозначены формы облаков: Ci - перистые, Cs - перисто-слоистые, Cc - перисто-кучевые, Ac - высококучевые, As - высокослоистые, Sc - слоисто-кучевые, Ns - слоисто-дождевые, Cu - кучевые, Cb - кучево-дождевые. Подробнее классификацию облаков см. в Атласе облаков (PDF).
T - Температура воздуха - температура, измеренная на высоте 2 м над землей.
Td - Температура точки росы - температура, при понижении до которой содержащийся в воздухе водяной пар достигнет насыщения.
f - Относительная влажность воздуха - влажноcть воздуха, измеренная на высоте 2 м над землей.
Te - Эффективная температура - температура, которую ощущает одетый по сезону человек в тени. Характеристика душности погоды. При расчете учитывается влияние влажности воздуха и скорости ветра на теплоощущения человека.
Tes - Эффективная температура на солнце - температура, которую ощущает человек, с поправкой на солнечный нагрев. Характеристика знойности погоды. Зависит от высоты солнца над горизонтом, облачности и скорости ветра. Ночью, в пасмурную погоду, а также при ветре 12 м/с и более поправка равна нулю.
P - Атмосферное давление - приведенное к уровню моря атмосферное давление.
Po - Атмосферное давление - измеренное на уровне метеостанции атмосферное давление.
Tmin - Минимальная температура - минимум температуры воздуха на высоте 2 м над землей.
Tmax - Максимальная температура - максимум температуры воздуха на высоте 2 м над землей.
R - Количество осадков - Количество выпавших осадков за период времени, мм. При наведении курсора мыши на число - период времени, за который выпало указанное количество осадков.
R24 - Количество осадков - Количество выпавших осадков за 24 часа, мм.
S - Снежный покров - Высота снежного покрова, см. При наведении курсора мыши на число - состояние снежного покрова и степень покрытия местности в баллах.